This is the latest recevied weather packets stored in our database for station/object ZS2JO. If no packets are shown the sender has not sent any weather packets the latest 10 day(s).
| Time | Temp. | Humidity | Pressure | Rain* | Wind** | Luminosity | Snow |
|---|---|---|---|---|---|---|---|
| 1777389832 | 13.33° C | 93% | 1027.6 hPa | 0 mm | - | 14 W/m² | - |
| 1777389524 | 13.33° C | 93% | 1027.6 hPa | 0 mm | - | 17 W/m² | - |
| 1777389220 | 13.33° C | 94% | 1027.7 hPa | 0 mm | - | 16 W/m² | - |
| 1777388919 | 13.33° C | 95% | 1027.5 hPa | 0 mm | - | 26 W/m² | - |
| 1777388614 | 13.33° C | 95% | 1027.7 hPa | 0 mm | - | 31 W/m² | - |
| 1777388312 | 13.33° C | 95% | 1027.5 hPa | 0 mm | - | 20 W/m² | - |
| 1777388011 | 13.33° C | 95% | 1027.5 hPa | 0 mm | - | 26 W/m² | - |
| 1777387708 | 13.33° C | 95% | 1027.5 hPa | 0 mm | - | 38 W/m² | - |
| 1777387404 | 13.33° C | 94% | 1027.3 hPa | 0 mm | - | 34 W/m² | - |
| 1777387104 | 13.33° C | 94% | 1027.4 hPa | 0 mm | - | 45 W/m² | - |
| 1777386800 | 13.33° C | 94% | 1027.5 hPa | 0.51 mm | - | 56 W/m² | - |
| 1777386497 | 13.33° C | 93% | 1027.4 hPa | 0.51 mm | - | 62 W/m² | - |
| 1777386194 | 13.89° C | 92% | 1027.5 hPa | 0 mm | - | 47 W/m² | - |
| 1777385892 | 13.89° C | 92% | 1027.5 hPa | 0 mm | - | 65 W/m² | - |
| 1777385588 | 13.89° C | 92% | 1027.4 hPa | 0 mm | - | 100 W/m² | - |
| 1777385286 | 13.33° C | 93% | 1027.5 hPa | 0 mm | - | 87 W/m² | - |
| 1777384981 | 13.33° C | 95% | 1027.5 hPa | 0 mm | - | 77 W/m² | - |
| 1777384679 | 12.78° C | 97% | 1027.4 hPa | 1.78 mm | - | 100 W/m² | - |
| 1777384378 | 12.78° C | 97% | 1027.3 hPa | 3.56 mm | - | 86 W/m² | - |
| 1777384074 | 12.78° C | 96% | 1027.2 hPa | 2.29 mm | - | 49 W/m² | - |
| 1777383770 | 12.78° C | 96% | 1027.4 hPa | 3.56 mm | - | 43 W/m² | - |
| 1777383467 | 12.78° C | 95% | 1027.2 hPa | 4.83 mm | - | 41 W/m² | - |
| 1777383163 | 12.78° C | 94% | 1027.2 hPa | 3.56 mm | - | 37 W/m² | - |
| 1777382860 | 13.33° C | 93% | 1027.1 hPa | 3.05 mm | - | 76 W/m² | - |
| 1777382555 | 13.89° C | 91% | 1027.5 hPa | 0.51 mm | - | 56 W/m² | - |
* Rain latest hour (hover to see other rain measurements)
** Current wind speed in m/s (hover to see current wind gust speed)